METOP-C

Last updated on Sun Oct 06 2024 00:02:18 GMT+0000 (Coordinated Universal Time)

1 43689U 18087A 24279.51097628 .00000927 00000+0 44382-3 0 9997 2 43689 98.7114 337.4335 0002618 116.3083 243.8364 14.21499622306794
UTC large
Height (km)
Speed (km/s)
/
Latitude / Longitude
Inclination (degrees)
Orbital Period (minutes)
Azimuth
Elevation
Range (km)
Doppler Factor

Next 0 passes for location: London (51.5072 / 0.1276)

Sorry there are no passes over London.